Wind_Speed
20 22 23 23 23 24 27 30 32 33 35 36 38 40 43 45 47 49 51 52 54 55 56 57 58 58 58 58 58 58 58 58 56 54 53 50 47 44 42 39 35 33 32 31
21 23 24 25 26 27 29 32 34 36 39 40 42 44 46 48 51 53 55 58 60 61 62 63 64 64 63 62 62 63 63 62 61 59 57 55 52 48 44 40 36 33 32 30
24 25 27 28 30 31 33 35 37 40 42 43 45 47 49 52 55 58 60 62 64 65 66 66 67 68 70 70 70 70 69 68 66 64 62 59 55 50 46 42 38 34 32 29
28 29 30 32 33 35 38 40 42 44 46 47 49 51 54 58 61 64 67 69 72 74 76 78 80 81 81 79 79 78 76 74 72 70 67 63 57 50 46 42 38 35 32 29
30 32 34 36 37 39 42 45 47 49 51 54 58 60 61 66 70 73 76 79 81 83 85 86 87 87 86 85 84 82 80 77 74 71 67 63 56 49 46 43 40 36 32 29
32 33 35 36 38 41 45 49 51 55 59 62 66 69 71 74 77 79 81 82 84 84 85 85 85 85 85 82 79 75 71 67 63 61 59 57 54 49 47 44 41 38 33 30
30 32 35 37 40 45 49 53 58 63 67 71 75 78 80 82 83 83 81 79 77 74 72 71 70 69 68 65 60 55 52 49 46 46 47 48 50 49 48 45 43 39 34 31
31 34 37 42 46 50 55 61 66 71 75 79 82 83 83 81 77 72 67 63 60 58 54 52 51 50 48 44 40 38 35 33 33 33 34 38 44 48 48 46 44 40 35 31
36 39 44 49 54 59 64 69 74 78 81 83 83 79 73 66 60 55 51 49 47 46 44 42 42 42 40 37 35 32 31 30 30 30 30 31 38 47 50 46 44 41 36 32
41 45 49 54 60 65 70 75 79 81 80 77 71 63 56 51 47 44 42 43 43 43 42 41 40 39 39 38 37 35 34 33 32 31 30 30 34 45 50 47 44 42 37 33
47 51 55 59 65 71 76 78 79 76 70 62 55 50 46 44 43 43 44 45 45 46 47 46 45 43 42 41 40 39 38 35 33 31 30 30 33 44 50 45 42 41 37 32
51 56 61 65 70 75 78 77 73 65 55 47 46 45 44 45 46 47 48 50 51 53 53 51 50 47 44 43 42 40 38 35 33 32 30 31 33 42 49 46 42 41 37 33
55 59 64 69 73 75 75 70 61 51 45 42 42 45 48 49 50 51 53 55 56 56 56 55 52 49 46 43 42 39 36 33 32 31 29 28 31 40 46 46 43 43 38 36
58 63 67 71 74 73 69 60 50 42 40 42 45 48 51 52 54 55 56 56 57 57 55 54 50 47 43 42 39 37 34 31 29 28 27 25 29 38 43 43 43 42 40 37
60 65 70 74 74 69 61 51 42 38 40 43 47 50 53 53 54 54 55 56 55 54 51 47 43 39 36 34 33 32 30 27 26 25 23 23 29 36 40 42 44 43 40 37
62 67 72 75 72 65 54 44 39 39 42 46 48 51 52 52 54 56 56 55 53 51 46 40 34 30 28 27 28 27 26 24 23 21 21 25 31 36 39 43 45 44 41 37
65 70 74 75 71 61 49 41 39 42 45 48 50 52 52 54 56 55 54 52 50 47 42 35 28 23 20 20 21 22 23 22 20 20 23 27 33 36 38 42 43 42 39 36
68 73 75 74 67 57 45 39 39 43 47 50 52 52 53 54 54 53 52 50 47 43 39 31 23 15 11 13 17 20 22 21 21 23 26 30 33 36 39 42 42 40 39 36
69 73 74 69 62 53 44 40 41 44 48 50 51 51 51 51 51 49 49 47 43 39 35 28 19 9 3 9 16 20 22 22 24 28 30 32 35 37 38 40 40 38 37 34
69 72 72 65 56 48 42 40 41 44 47 50 50 49 48 47 47 46 46 44 41 38 34 26 17 8 5 12 19 22 23 27 30 32 33 33 35 37 37 38 39 37 35 32
69 71 70 63 52 44 40 39 41 44 47 49 49 49 47 46 44 43 43 41 39 36 30 25 16 12 13 18 22 26 31 34 34 34 33 34 35 36 36 36 36 35 32 30
69 71 68 61 50 41 37 38 40 43 45 46 47 47 46 43 41 40 40 39 37 33 27 23 18 17 21 26 31 35 36 36 35 34 34 34 34 33 32 32 34 33 30 28
68 69 66 59 48 39 35 36 39 41 43 44 45 44 43 42 41 38 37 36 34 31 25 20 19 23 28 33 35 37 37 36 34 33 32 32 31 29 29 31 32 32 29 27
67 67 64 57 47 38 33 34 37 39 40 42 43 42 41 40 38 36 34 33 31 27 24 22 22 26 31 33 35 35 34 33 31 30 30 29 27 26 26 28 30 30 28 26
66 66 62 55 45 36 31 32 35 37 37 38 39 39 39 39 36 33 31 28 26 23 22 22 24 26 29 32 33 32 31 30 28 27 26 24 22 22 23 25 27 28 27 26
65 65 60 54 46 36 31 32 35 36 36 35 35 36 37 36 33 30 27 24 21 20 20 22 24 26 28 29 29 27 27 26 24 22 21 20 19 19 20 22 23 24 25 24
63 63 57 50 43 35 30 30 33 35 35 35 34 34 34 33 31 28 24 21 19 19 19 21 23 24 25 25 24 23 22 21 19 18 17 16 16 17 18 19 20 21 20 20
Wind_Direction
316 311 307 302 299 296 295 296 297 297 296 295 293 292 291 290 289 288 287 286 285 285 284 284 284 285 285 287 288 289 290 292 293 293 294 296 297 298 299 298 298 300 304 304
316 312 309 306 304 301 299 297 296 296 296 296 294 292 290 288 287 286 285 283 281 281 280 281 281 280 280 281 283 285 286 286 288 289 289 290 291 292 292 292 291 293 296 298
317 313 309 307 306 303 301 300 300 300 300 299 297 295 293 290 288 286 285 283 279 277 277 277 277 279 280 280 280 281 282 282 282 283 284 284 285 284 284 284 283 284 287 290
319 316 313 312 310 310 310 310 308 307 305 303 299 296 293 290 288 287 285 283 282 281 281 280 281 281 280 280 279 279 279 279 278 278 278 278 277 276 274 274 274 275 278 281
320 318 318 318 318 318 316 314 313 312 308 304 300 297 292 289 288 287 286 285 285 284 284 284 284 283 282 281 280 280 279 278 276 274 273 271 268 265 263 264 264 265 268 271
321 321 321 322 321 320 317 313 314 310 306 302 300 297 295 292 290 288 288 287 287 287 286 286 286 285 284 283 282 281 279 277 275 272 268 264 259 253 252 253 255 256 258 260
326 326 324 324 322 319 314 313 312 310 308 306 303 301 299 296 295 294 294 293 292 291 291 290 290 289 288 286 283 280 277 273 270 268 265 258 250 242 240 243 245 248 248 251
332 330 326 325 322 319 317 316 314 312 309 307 304 302 301 301 301 300 300 299 298 297 297 296 294 293 292 289 283 277 273 269 266 266 265 256 243 232 229 233 237 241 241 242
333 330 327 325 323 321 320 317 315 313 310 308 307 307 308 308 308 306 305 303 302 301 301 300 297 294 291 287 283 278 275 272 268 268 267 261 242 226 222 225 228 234 235 234
330 329 328 325 324 322 320 318 316 313 312 312 313 314 315 314 313 312 310 307 305 303 302 300 297 292 288 284 281 277 276 273 271 270 267 266 247 226 219 218 221 226 228 225
330 330 329 327 325 323 321 319 317 316 317 317 318 319 319 319 317 314 311 308 306 304 302 299 295 291 286 282 279 276 275 273 270 268 264 265 252 228 218 211 211 216 218 216
332 331 330 328 326 324 322 321 321 320 321 321 321 321 320 319 317 315 312 309 306 304 302 299 295 290 284 281 277 274 271 268 265 264 262 263 251 228 215 207 206 205 205 205
332 331 330 328 327 326 325 325 325 325 326 325 324 322 321 320 318 316 314 312 309 306 302 298 293 288 281 277 273 270 268 264 262 259 261 258 241 221 211 205 201 197 198 199
333 331 330 329 329 330 330 330 330 330 329 328 326 325 324 323 322 320 318 316 314 310 305 300 294 287 278 271 267 264 261 258 256 253 255 245 226 212 205 200 194 192 194 196
332 332 332 333 333 334 334 334 334 332 331 330 329 328 328 328 327 326 324 323 321 318 313 306 297 287 275 265 258 253 250 249 245 246 242 223 208 202 199 194 189 189 190 193
335 335 335 335 336 337 337 336 336 334 333 334 333 333 332 332 332 330 329 328 326 325 323 315 305 291 274 260 248 242 238 234 233 231 214 202 198 194 192 189 187 186 187 191
337 337 337 338 339 339 339 338 337 337 337 337 337 337 336 335 336 335 333 333 334 334 331 325 313 297 275 252 236 225 219 216 216 205 192 189 189 187 183 183 183 183 185 188
338 338 339 340 340 341 341 339 338 338 338 339 340 340 340 340 341 341 340 340 340 340 340 337 327 308 271 234 215 203 199 197 191 182 177 177 179 179 179 179 181 182 185 187
338 339 340 342 341 340 341 341 340 341 341 341 343 344 344 345 346 347 347 348 348 349 350 350 347 337 261 192 181 178 177 173 170 167 166 166 170 172 175 178 180 181 183 186
339 340 341 343 341 340 340 341 343 344 344 345 345 346 347 348 349 350 352 355 356 356 359 4 10 26 111 147 153 155 156 155 156 158 159 160 164 170 174 176 178 180 182 184
340 341 342 343 343 340 340 342 345 346 347 348 350 350 351 351 352 354 357 0 1 4 8 18 33 67 107 129 138 141 143 144 147 151 153 157 163 169 173 175 178 178 180 182
341 342 343 344 344 342 341 343 346 348 348 350 351 353 354 355 356 359 2 4 7 10 17 31 54 87 110 123 129 133 136 139 142 147 150 154 160 166 170 174 177 177 179 181
342 342 343 345 344 343 343 345 347 349 350 351 352 354 356 358 1 5 9 11 13 19 31 49 73 99 114 121 125 128 132 136 140 145 150 154 158 161 167 173 176 177 180 183
342 343 344 345 345 343 343 345 348 351 353 353 354 355 359 2 7 11 14 17 21 30 45 66 89 107 115 119 122 126 130 134 138 143 149 153 156 160 166 172 177 179 182 184
342 343 344 345 346 343 342 346 350 352 355 357 357 0 3 6 11 15 19 24 30 41 59 79 95 108 114 118 121 123 127 131 135 140 145 150 155 160 164 170 176 181 184 186
343 344 345 346 346 345 343 345 349 352 356 359 1 4 7 11 15 19 25 33 43 56 72 87 100 109 114 119 121 123 126 130 133 138 143 148 153 159 167 174 180 183 187 191
343 344 345 346 346 343 341 343 347 351 355 360 4 6 9 14 18 25 34 45 57 69 81 92 102 107 111 115 118 121 126 130 133 135 140 148 156 162 168 171 174 178 183 190
Height
5832 5828 5825 5822 5820 5817 5813 5809 5806 5802 5797 5793 5788 5784 5779 5774 5769 5765 5760 5755 5751 5746 5742 5738 5734 5731 5728 5725 5722 5719 5717 5716 5715 5714 5712 5711 5710 5709 5707 5705 5703 5700 5697 5693
5828 5824 5821 5817 5814 5811 5808 5804 5799 5794 5789 5784 5779 5774 5769 5763 5757 5751 5746 5740 5735 5730 5725 5721 5718 5715 5711 5708 5706 5703 5701 5700 5699 5698 5698 5698 5697 5697 5696 5695 5693 5691 5689 5686
5824 5820 5816 5813 5809 5805 5800 5796 5791 5785 5780 5774 5768 5762 5755 5749 5742 5736 5730 5724 5718 5712 5706 5702 5697 5694 5692 5690 5687 5685 5683 5681 5680 5680 5681 5682 5683 5684 5684 5684 5683 5682 5681 5679
5818 5815 5811 5809 5802 5797 5792 5786 5781 5774 5768 5762 5755 5750 5743 5734 5726 5720 5712 5705 5698 5692 5685 5680 5675 5671 5667 5666 5663 5661 5660 5659 5659 5659 5661 5663 5666 5668 5669 5671 5671 5671 5671 5670
5812 5808 5803 5799 5793 5788 5782 5776 5770 5763 5756 5749 5740 5734 5728 5716 5707 5698 5689 5680 5672 5665 5658 5653 5647 5642 5639 5637 5635 5633 5632 5632 5633 5634 5637 5641 5645 5650 5653 5656 5658 5660 5661 5661
5806 5801 5796 5793 5786 5779 5773 5765 5758 5750 5741 5732 5722 5713 5708 5695 5684 5673 5663 5654 5645 5637 5630 5624 5618 5611 5608 5607 5605 5603 5603 5604 5605 5607 5611 5616 5623 5630 5636 5640 5643 5647 5650 5651
5801 5796 5790 5785 5778 5771 5763 5756 5745 5733 5722 5711 5700 5688 5678 5667 5655 5644 5634 5625 5616 5609 5604 5599 5592 5586 5582 5581 5579 5578 5578 5580 5582 5584 5588 5593 5600 5609 5617 5623 5628 5633 5638 5641
5796 5791 5786 5777 5769 5761 5751 5739 5727 5715 5702 5689 5677 5664 5651 5639 5628 5617 5608 5600 5592 5585 5582 5577 5572 5566 5563 5561 5560 5560 5561 5563 5564 5566 5569 5572 5579 5588 5598 5606 5613 5619 5625 5630
5790 5785 5775 5766 5756 5746 5734 5722 5709 5695 5681 5665 5650 5638 5626 5615 5606 5598 5590 5583 5577 5571 5567 5563 5558 5553 5549 5548 5547 5548 5549 5550 5551 5552 5554 5557 5561 5569 5579 5588 5598 5606 5613 5619
5782 5775 5766 5755 5744 5732 5719 5704 5690 5673 5656 5641 5627 5617 5608 5599 5591 5583 5577 5570 5564 5558 5553 5549 5545 5541 5538 5536 5535 5535 5536 5537 5538 5540 5541 5543 5547 5553 5562 5572 5584 5593 5602 5609
5774 5765 5756 5745 5731 5718 5703 5686 5669 5653 5638 5623 5612 5604 5595 5588 5581 5573 5566 5559 5552 5545 5539 5534 5529 5526 5523 5521 5521 5521 5522 5524 5525 5526 5528 5531 5533 5538 5547 5557 5570 5582 5591 5599
5765 5754 5743 5731 5717 5701 5685 5668 5650 5635 5624 5614 5603 5594 5586 5579 5571 5562 5554 5546 5538 5530 5523 5517 5511 5508 5505 5504 5504 5505 5507 5509 5511 5513 5516 5518 5519 5525 5535 5547 5559 5570 5581 5590
5754 5743 5731 5717 5702 5684 5667 5650 5635 5622 5612 5604 5596 5586 5577 5569 5560 5550 5540 5530 5521 5512 5503 5496 5491 5488 5486 5485 5486 5489 5491 5494 5497 5500 5503 5505 5508 5515 5526 5538 5550 5561 5572 5582
5743 5732 5720 5704 5687 5669 5652 5637 5624 5614 5605 5596 5587 5578 5568 5558 5547 5536 5525 5514 5502 5491 5482 5474 5468 5465 5464 5465 5468 5472 5477 5481 5484 5487 5491 5495 5499 5508 5519 5531 5542 5554 5565 5576
5735 5722 5706 5689 5672 5655 5639 5627 5617 5608 5599 5590 5580 5569 5558 5546 5535 5523 5510 5497 5485 5473 5462 5453 5447 5445 5444 5446 5451 5457 5463 5468 5472 5477 5481 5486 5494 5503 5514 5526 5538 5549 5561 5571
5725 5710 5694 5677 5660 5643 5629 5618 5610 5602 5593 5583 5572 5561 5549 5536 5524 5511 5497 5483 5470 5458 5447 5437 5432 5429 5428 5432 5437 5444 5451 5457 5463 5468 5474 5481 5490 5500 5511 5523 5535 5546 5557 5568
5713 5699 5684 5668 5651 5635 5622 5612 5603 5595 5585 5575 5564 5552 5540 5527 5514 5501 5487 5473 5460 5447 5436 5427 5421 5418 5418 5421 5427 5434 5442 5449 5456 5463 5471 5479 5489 5500 5511 5522 5533 5545 5556 5566
5701 5686 5669 5653 5637 5626 5616 5607 5598 5589 5579 5568 5557 5545 5533 5520 5506 5492 5480 5467 5454 5442 5430 5421 5414 5411 5411 5414 5420 5428 5436 5445 5452 5461 5470 5480 5490 5501 5511 5522 5533 5544 5554 5563
5692 5677 5661 5645 5630 5618 5609 5601 5593 5584 5574 5563 5551 5540 5528 5515 5502 5489 5476 5463 5451 5440 5430 5420 5413 5410 5410 5413 5419 5426 5435 5443 5452 5462 5473 5483 5493 5503 5513 5523 5534 5544 5554 5563
5685 5670 5654 5639 5625 5614 5605 5598 5589 5580 5570 5559 5548 5536 5525 5513 5501 5488 5475 5463 5451 5441 5431 5423 5417 5414 5414 5417 5423 5430 5438 5447 5456 5467 5477 5487 5497 5507 5516 5526 5536 5545 5555 5563
5678 5663 5648 5635 5622 5611 5602 5595 5586 5577 5567 5557 5546 5535 5523 5512 5501 5489 5477 5467 5456 5446 5437 5430 5424 5421 5421 5425 5430 5437 5445 5454 5464 5474 5484 5493 5502 5511 5520 5529 5538 5547 5556 5564
5672 5658 5644 5630 5619 5609 5601 5593 5585 5576 5566 5556 5546 5535 5524 5514 5503 5493 5482 5472 5462 5454 5446 5440 5435 5433 5433 5436 5441 5448 5456 5465 5474 5483 5491 5500 5508 5516 5525 5533 5541 5550 5558 5565
5666 5652 5639 5626 5615 5606 5599 5592 5584 5575 5566 5556 5546 5536 5526 5516 5505 5496 5487 5479 5471 5463 5456 5452 5448 5447 5448 5451 5456 5462 5469 5477 5484 5492 5500 5507 5514 5521 5529 5536 5544 5552 5559 5566
5662 5648 5635 5623 5612 5604 5597 5591 5584 5576 5567 5558 5548 5538 5528 5519 5511 5502 5494 5487 5481 5475 5469 5465 5463 5463 5464 5467 5471 5477 5483 5489 5495 5501 5508 5514 5521 5527 5534 5540 5547 5554 5560 5566
5657 5644 5631 5620 5611 5602 5596 5590 5584 5577 5569 5561 5551 5542 5532 5523 5515 5508 5502 5496 5491 5487 5483 5480 5478 5478 5480 5482 5486 5490 5495 5500 5505 5511 5517 5522 5528 5533 5538 5544 5550 5556 5561 5567
5653 5640 5628 5616 5607 5600 5593 5588 5582 5576 5569 5562 5554 5545 5537 5529 5522 5515 5510 5505 5501 5498 5496 5494 5493 5493 5495 5497 5499 5503 5506 5510 5515 5519 5524 5528 5532 5537 5541 5546 5551 5556 5561 5567
5649 5637 5626 5615 5606 5599 5593 5588 5582 5576 5569 5562 5555 5547 5541 5534 5528 5522 5518 5514 5511 5509 5507 5506 5506 5506 5508 5509 5511 5514 5516 5519 5522 5526 5529 5532 5536 5540 5544 5548 5553 5557 5562 5567